This demonstration page uses our WeatherBlox Daily Observations layout. Learn more.

Left ArrowRight Arrow

36.19886, -115.1175

Hourly Observations for February 16, 2022

Temp ( °F °C ) Dew Point ( °F °C ) Humidity (%) Winds ( mph kmh ) Pressure ( in mb ) Visibility ( mi km ) Precip ( " mm )
12:53 am 00:53 Mostly Clear 54 12.2 22 -5.6 29 29 NNW 16 26 29.74 1007 10 16 0.00 0.00
1:53 am 01:53 Clear 53 11.7 23 -5 31 31 NW 24 39 29.76 1008 10 16 0.00 0.00
2:53 am 02:53 Cloudy 54 12.2 24 -4.4 31 31 NW 18 30 29.77 1008 10 16 0.00 0.00
3:53 am 03:53 Mostly Clear 54 12.2 27 -2.8 35 35 NNW 16 26 29.79 1009 10 16 0.00 0.00
4:53 am 04:53 Clear 52 11.1 26 -3.3 37 37 NNW 15 24 29.81 1010 10 16 0.00 0.00
5:53 am 05:53 Clear 51 10.6 26 -3.3 38 38 NNW 17 28 29.83 1010 10 16 0.00 0.00
6:53 am 06:53 Sunny 50 10 25 -3.9 38 38 NNW 15 24 29.85 1011 10 16 0.00 0.00
7:53 am 07:53 Sunny 52 11.1 24 -4.4 34 34 NNW 17 28 29.87 1012 10 16 0.00 0.00
8:53 am 08:53 Sunny 55 12.8 23 -5 29 29 NW 18 30 29.88 1012 10 16 0.00 0.00
9:53 am 09:53 Sunny 58 14.4 23 -5 26 26 NNW 21 33 29.89 1012 10 16 0.00 0.00
10:53 am 10:53 Sunny 59 15 23 -5 25 25 NNW 18 30 29.89 1012 10 16 0.00 0.00
11:53 am 11:53 Sunny 61 16.1 18 -7.8 19 19 NW 18 30 29.88 1012 10 16 0.00 0.00
12:53 pm 12:53 Sunny 63 17.2 16 -8.9 16 16 undefined N/A 29.85 1011 10 16 0.00 0.00
1:53 pm 13:53 Sunny 65 18.3 12 -11.1 13 13 NNW 23 37 29.83 1010 10 16 0.00 0.00
2:53 pm 14:53 Mostly Sunny 63 17.2 12 -11.1 13 13 NW 22 35 29.85 1011 10 16 0.00 0.00
3:53 pm 15:53 Mostly Cloudy 66 18.9 14 -10 13 13 WNW 22 35 29.87 1012 10 16 0.00 0.00
4:53 pm 16:53 Mostly Cloudy 64 17.8 16 -8.9 15 15 N 21 33 29.90 1012 10 16 0.00 0.00
5:53 pm 17:53 Clear 61 16.1 15 -9.4 17 17 NNW 18 30 29.95 1014 10 16 0.00 0.00
6:53 pm 18:53 Clear 59 15 17 -8.3 19 19 NW 23 37 30.00 1016 10 16 0.00 0.00
7:53 pm 19:53 Clear 57 13.9 15 -9.4 19 19 NNW 23 37 30.05 1018 10 16 0.00 0.00
8:53 pm 20:53 Mostly Cloudy 54 12.2 16 -8.9 22 22 NNW 15 24 30.12 1020 9 14 0.00 0.00
9:53 pm 21:53 Clear 53 11.7 16 -8.9 23 23 NNW 17 28 30.16 1021 10 16 0.00 0.00
10:53 pm 22:53 Clear 52 11.1 15 -9.4 23 23 NW 16 26 30.19 1022 10 16 0.00 0.00
11:53 pm 23:53 Clear 50 10 15 -9.4 25 25 NW 18 30 30.23 1024 10 16 0.00 0.00

Powered by AerisWeather